Back to catalog

STARLINK-31322

AliveCommunicationsVLEO
NORAD 59168·PAYLOAD·🇺🇸 United States

Launched Mar 4, 2024 from Cape Canaveral Space Force Station

Loading…

Next Passes (next 24 hours)

TLE

FreshSource: CelesTrak SupGP

Epoch: Sep 14, 2026, 13:44 UTC

1 59168C 24044S   26257.57270833  .00032489  00000+0  11769-2 0  2578
2 59168  43.0015 120.6358 0001333 262.5869 291.5296 15.27559065    17

Track STARLINK-31322 in real time with AllMySat

Download on the App Store